Penn Yan, NY

6:21 AM EDT on March 26, 2017 (GMT -0400)
Penn Yan

Weather History for KPEO - September, 2012

Change the Weather History Date:

Tuesday, September 25, 2012

  Actual Average (KITH) Record (KITH)
Temperature  
Mean Temperature 60 °F -  
Max Temperature 72 °F 63 °F 87 °F (1961)
Min Temperature 48 °F 42 °F 30 °F (1963)
Degree Days  
Heating Degree Days 6    
Growing Degree Days 10 (Base 50)    
Moisture  
Dew Point 41 °F    
Average Humidity 54    
Maximum Humidity 80    
Minimum Humidity 33    
Precipitation  
Precipitation 0.04 in - - ()
Sea Level Pressure  
Sea Level Pressure 30.03 in    
Wind  
Wind Speed 10 mph (South)    
Max Wind Speed 15 mph    
Max Gust Speed 22 mph    
Visibility 10 miles    
Events Rain    
Averages and records for this station are not official NWS values.
T = Trace of Precipitation, MM = Missing Value Source: NWS Daily Summary

Daily Weather History Graph

Daily Weather History Graph

Search for Another Location

Airport or City:

Trip Planner

Search our weather history database for the weather conditions in past years. The results will help you decide how hot, cold, wet, or windy it might be!

Date:

Astronomy

Sep. 25, 2012 Rise Set
Actual Time 6:59 AM EDT 6:59 PM EDT
Civil Twilight 6:31 AM EDT 7:27 PM EDT
Nautical Twilight 5:58 AM EDT 8:00 PM EDT
Astronomical Twilight 5:24 AM EDT 8:33 PM EDT
Moon 4:27 PM EDT (9/25) 2:13 AM EDT (9/25)
Length of Visible Light 12h 56m
Length of Day
12h 00m
Waxing Gibbous, 80% of the Moon is Illuminated
Sep 25
Waxing Gibbous
Sep 29
Full
Oct 8
Last Quarter
Oct 15
New
Oct 21
First Quarter

Hourly Weather History & Observations

Time (EDT) Temp. Dew Point Humidity Pressure Visibility Wind Dir Wind Speed Gust Speed Precip Events Conditions
12:53 AM 51.1 °F 39.0 °F 63% 30.04 in 10.0 mi South 10.4 mph - N/A   Clear
1:53 AM 50.0 °F 37.9 °F 63% 30.04 in 10.0 mi South 8.1 mph - N/A   Clear
2:53 AM 51.1 °F 37.9 °F 61% 30.03 in 10.0 mi SSW 12.7 mph 21.9 mph N/A   Clear
3:53 AM 51.1 °F 39.0 °F 63% 30.03 in 10.0 mi SSW 10.4 mph 18.4 mph N/A   Clear
4:53 AM 50.0 °F 39.0 °F 66% 30.03 in 10.0 mi South 5.8 mph - N/A   Clear
5:53 AM 50.0 °F 37.9 °F 63% 30.03 in 10.0 mi South 8.1 mph - N/A   Clear
6:53 AM 48.9 °F 37.0 °F 64% 30.04 in 10.0 mi South 11.5 mph - N/A   Clear
7:53 AM 51.1 °F 37.9 °F 61% 30.04 in 10.0 mi South 13.8 mph 20.7 mph N/A   Clear
8:53 AM 55.0 °F 37.9 °F 53% 30.05 in 10.0 mi South 13.8 mph - N/A   Clear
9:53 AM 59.0 °F 39.0 °F 48% 30.04 in 10.0 mi SSW 11.5 mph - N/A   Clear
10:53 AM 63.0 °F 41.0 °F 45% 30.05 in 10.0 mi South 11.5 mph - N/A   Clear
11:53 AM 66.0 °F 41.0 °F 40% 30.05 in 10.0 mi South 11.5 mph - N/A   Clear
12:53 PM 70.0 °F 41.0 °F 35% 30.05 in 10.0 mi SW 12.7 mph 17.3 mph N/A   Clear
1:53 PM 70.0 °F 39.9 °F 33% 30.03 in 10.0 mi South 9.2 mph 19.6 mph N/A   Clear
3:53 PM 71.1 °F 42.1 °F 35% 29.99 in 10.0 mi South 9.2 mph 20.7 mph N/A   Clear
4:53 PM 70.0 °F 42.1 °F 36% 29.99 in 10.0 mi South 13.8 mph - N/A   Overcast
5:53 PM 68.0 °F 45.0 °F 43% 29.99 in 10.0 mi South 15.0 mph 20.7 mph N/A   Mostly Cloudy
6:53 PM 63.0 °F 44.1 °F 50% 30.00 in 10.0 mi South 10.4 mph - N/A   Partly Cloudy
7:53 PM 62.1 °F 43.0 °F 50% 30.01 in 10.0 mi South 9.2 mph 19.6 mph N/A   Partly Cloudy
8:53 PM 61.0 °F 45.0 °F 56% 30.02 in 10.0 mi SSW 10.4 mph - 0.00 in   Overcast
9:53 PM 55.9 °F 50.0 °F 80% 30.02 in 10.0 mi SE 3.5 mph - 0.02 in   Overcast
11:53 PM 57.9 °F 48.9 °F 72% 29.99 in 10.0 mi South 5.8 mph - 0.02 in Rain Light Rain